sat.trackr.live / text

‹ back to catalog

QIANFAN-180

NORAD 69397 · 2026-124R

PAYLOAD ACTIVE UNKNOWN

§ Identity

Operator
Country
PRC
Launch date
2026-06-04
Launch site
TAISC
Launch vehicle
Mass (kg)
RCS (m²)

External: N2YO · Heavens-Above · Gunter

§ Orbital elements

Epoch: 2026-09-20T03:40:08.125248Z

Period
106.59 min
Inclination
89.0050°
Eccentricity
0.0001805
Mean motion
13.51022227 rev/d
Perigee alt
1,067.2 km
Apogee alt
1,069.8 km
Semi-major
7,446.6 km
B*
1.1696e-4
RAAN
351.9909°
Arg perigee
97.4642°
Mean anomaly
262.6715°
Rev number
1,489

§ Raw data

QIANFAN-1801 69397U 26124R   26263.15287182  .00000088  00000+0  11696-3 0  99932 69397  89.0050 351.9909 0001805  97.4642 262.6715 13.51022227 14896

JSON: /api/v1/satellites/69397 · /tle

For live sub-satellite position, see the globe view (requires WebGL).

§ Visibility from observer

Set your observer location to see the next 7 days of passes ≥ 10°. The values pass through the URL so the page stays shareable.

No JS? Fill the form by hand. The geolocation button needs JavaScript.